Temperature
18 18 18 18 18 18 18 18 18 18 18 18 18 18 18 18 18 18 18 18 18 18 18 18 17 17 17 17 17 17 17 17 17 17 17 17 17 17 16 16 16 16 16
18 18 18 18 18 18 18 18 18 18 18 18 18 18 18 18 18 18 18 18 18 18 18 17 17 17 17 17 17 17 17 17 17 17 17 17 16 16 16 16 16 16 16
18 18 18 18 18 18 18 18 18 18 18 18 18 18 18 18 18 18 18 18 18 18 18 17 17 17 17 17 17 17 17 17 17 17 17 16 16 16 16 16 16 16 16
18 18 18 18 18 18 18 18 18 18 18 18 18 18 18 18 18 18 18 18 18 18 18 18 18 17 17 17 17 17 17 17 17 17 16 16 16 16 16 16 16 16 16
18 18 18 18 18 18 18 18 18 18 18 18 18 18 18 18 18 18 18 18 18 18 18 18 18 18 17 17 17 17 17 17 17 17 16 16 16 16 16 16 16 16 16
18 18 18 18 18 18 18 18 18 18 18 18 18 18 18 18 18 18 18 18 18 18 18 18 18 18 18 17 17 17 17 17 17 17 17 16 16 16 16 16 16 16 16
18 18 18 18 18 18 18 18 18 18 18 18 18 18 18 18 18 18 18 18 18 18 18 18 18 18 18 18 17 17 17 17 17 17 17 17 16 16 16 16 16 16 16
19 18 18 18 18 18 18 18 18 18 18 18 18 18 18 18 18 18 18 18 18 18 18 18 18 18 18 18 18 18 17 17 17 17 17 17 17 16 16 16 16 16 16
19 18 18 18 18 18 18 18 18 18 18 18 18 17 18 18 18 18 18 18 18 18 18 18 18 18 18 18 18 18 17 17 17 17 17 17 17 16 16 16 16 16 16
18 18 18 18 18 18 18 18 18 18 18 17 17 17 17 17 17 17 18 18 18 18 18 18 18 18 18 18 17 17 17 17 17 17 17 17 17 16 16 16 16 16 16
19 18 18 18 18 18 18 18 18 18 18 18 17 17 17 17 17 17 17 18 18 18 18 18 18 18 18 18 17 17 17 17 17 17 17 17 17 16 16 16 16 16 16
19 18 18 18 18 18 18 18 18 18 18 18 17 17 17 17 17 17 17 17 17 18 18 18 18 18 18 18 17 17 17 17 17 17 17 17 17 16 16 16 16 16 16
19 18 18 18 18 18 18 18 18 18 17 17 17 17 17 17 17 17 17 17 17 17 17 18 18 17 18 18 18 17 17 17 17 17 17 17 17 16 16 16 16 16 16
19 18 18 18 18 18 18 18 18 18 17 17 17 17 17 17 17 17 17 17 17 17 17 17 17 17 17 17 17 17 17 17 17 17 17 17 17 16 16 16 16 16 16
19 18 18 18 18 18 18 18 18 18 18 17 17 17 17 17 17 17 17 17 16 16 16 17 17 17 17 17 17 17 17 17 17 17 17 16 16 16 16 16 16 16 16
19 18 18 18 18 18 18 18 18 18 17 17 17 17 17 17 17 17 17 17 16 16 16 16 16 17 17 17 17 17 17 17 17 16 16 16 16 16 16 16 16 16 16
19 18 18 18 18 18 18 18 18 17 17 17 17 17 17 17 17 17 16 16 16 16 16 16 16 16 16 16 16 16 16 16 16 16 16 16 16 16 16 16 16 16 16
18 18 18 18 18 18 18 18 18 17 17 17 17 17 17 16 16 16 16 16 16 16 16 16 16 16 16 16 16 16 16 16 16 16 16 16 16 16 16 16 16 15 15
18 18 18 18 18 18 18 18 17 17 17 17 17 17 16 16 16 16 16 16 16 16 16 16 16 16 16 16 16 16 16 16 16 16 16 16 16 16 15 15 15 15 15
18 18 18 18 18 18 18 17 17 17 17 17 16 16 16 16 16 16 16 16 16 16 15 15 15 15 15 15 15 15 15 15 15 15 15 15 15 15 15 15 15 15 15
18 18 18 18 18 17 17 17 17 17 17 16 16 16 16 16 16 16 16 16 15 15 15 15 15 15 15 15 15 15 15 15 15 15 15 15 15 15 15 15 15 15 15
18 18 18 17 17 17 17 17 17 17 16 16 16 16 16 16 16 16 15 15 15 15 15 15 15 15 15 15 15 14 14 14 14 14 14 14 14 14 14 14 14 14 14
18 17 17 17 17 17 17 16 16 16 16 16 16 16 16 16 15 15 15 15 15 15 15 15 15 15 15 14 14 14 14 14 14 14 14 14 14 14 14 14 14 14 14
17 17 17 17 17 17 16 16 16 16 16 16 16 16 15 15 15 15 15 15 15 15 15 15 14 14 14 14 14 14 13 13 13 13 13 13 13 14 14 14 14 13 13
17 17 17 17 17 16 16 16 16 16 15 15 15 15 15 15 15 14 14 15 15 14 14 14 14 14 13 13 13 13 13 13 13 13 13 13 13 13 13 13 13 13 13
17 17 16 16 16 16 16 15 15 15 15 15 15 15 14 14 15 14 14 14 14 14 14 13 13 13 13 13 13 13 13 12 12 12 13 12 12 12 12 12 13 13 13
Wind_Speed
1 1 1 0 0 1 0 1 1 2 2 2 2 2 2 3 4 5 6 7 8 9 10 11 11 11 11 11 12 12 11 11 10 10 9 9 9 10 10 10 9 9 9
3 2 1 1 1 2 2 1 1 1 2 2 2 3 3 4 5 6 6 7 8 9 10 11 11 11 12 12 12 12 12 12 11 11 10 10 9 9 9 9 9 9 9
4 3 2 2 2 2 2 1 1 1 1 1 2 2 3 4 5 6 6 6 7 8 10 11 11 12 12 11 12 13 12 12 12 12 12 11 11 10 10 10 10 10 9
6 4 3 2 3 2 2 1 0 0 1 1 2 2 2 3 4 5 5 6 6 6 8 10 11 12 12 12 12 12 12 12 13 13 12 12 12 12 11 11 11 11 10
6 5 4 3 3 2 1 1 1 1 1 1 2 2 2 2 3 4 4 5 6 6 7 8 10 12 12 12 12 12 12 13 13 13 13 13 13 12 13 13 12 12 12
6 5 3 3 3 2 1 1 1 1 1 1 1 2 2 2 2 2 3 4 4 6 6 7 7 8 10 11 12 12 12 12 13 13 13 13 14 13 13 13 13 13 13
6 5 3 3 3 3 3 2 1 1 1 0 1 2 2 1 1 2 2 2 3 4 5 6 6 6 7 10 11 12 11 11 12 13 14 14 14 14 14 14 14 14 14
6 5 5 4 3 3 2 2 2 1 1 1 1 1 2 3 2 1 1 2 3 2 3 4 5 6 7 7 8 9 9 10 10 12 12 12 13 13 13 13 14 14 15
5 5 5 4 4 4 3 3 3 3 2 1 1 2 1 2 2 2 2 1 2 2 2 3 5 6 7 6 7 8 9 9 10 10 11 11 12 13 13 13 13 14 14
5 5 5 5 4 3 3 3 3 3 2 2 1 1 2 2 1 2 2 2 2 2 3 3 3 4 5 6 7 8 9 9 10 10 10 10 11 12 13 13 13 13 13
4 5 6 5 5 4 4 4 3 3 3 3 2 1 1 1 2 2 3 3 3 2 3 3 3 3 4 5 6 7 8 9 9 9 9 9 10 10 11 12 12 11 11
3 4 5 5 5 5 5 5 4 4 4 3 3 2 2 2 2 2 3 3 3 3 3 3 3 3 4 5 6 7 8 9 9 10 9 9 9 9 9 9 10 10 10
3 5 4 5 5 5 5 5 4 4 4 4 4 3 3 3 2 2 2 2 3 3 2 2 2 3 4 4 6 7 7 8 8 9 9 9 8 8 8 8 8 8 8
5 5 5 5 5 5 5 4 4 4 4 4 4 4 3 4 3 3 3 2 2 2 2 3 2 3 4 4 5 6 5 6 7 7 7 7 7 7 7 7 8 8 8
5 5 5 5 5 5 5 5 4 5 4 4 4 4 3 3 3 4 4 3 3 3 4 3 2 2 3 4 5 4 4 5 6 6 6 7 6 6 6 7 7 7 7
5 4 4 5 5 5 5 5 4 4 4 4 3 3 3 3 3 3 3 3 4 4 4 3 3 3 3 4 4 4 5 5 5 6 6 6 6 6 6 6 6 6 7
5 4 4 4 4 4 5 5 5 4 4 4 4 4 4 3 3 2 2 3 3 3 5 4 3 3 3 4 3 3 4 4 4 5 6 6 5 6 6 6 6 6 6
6 5 5 4 5 4 4 6 6 6 6 6 5 4 4 3 3 3 3 4 4 5 4 5 3 2 3 3 3 3 3 3 4 5 5 5 5 5 5 5 5 6 6
6 5 5 5 5 5 5 6 6 6 6 6 5 5 5 4 4 4 4 4 4 4 4 4 4 2 2 2 2 3 3 3 3 4 4 5 5 5 5 5 5 5 5
6 6 5 5 5 5 5 5 5 5 5 5 5 5 5 5 5 4 4 4 3 3 2 3 3 3 2 2 2 2 3 2 3 3 3 4 4 5 5 5 6 6 6
7 6 5 5 4 4 5 5 5 5 5 5 5 5 5 5 6 5 4 4 3 3 3 3 3 2 2 2 2 2 3 3 3 2 3 3 3 3 3 5 6 6 6
6 6 6 6 5 5 5 6 5 5 5 5 5 4 4 4 5 5 5 5 5 4 4 3 3 4 4 3 3 2 2 2 3 1 2 3 2 3 3 3 5 6 7
7 6 6 6 6 6 6 6 5 4 4 4 4 4 3 3 4 3 3 3 3 4 6 5 5 5 5 4 3 3 3 4 4 3 2 3 2 4 4 5 6 7 7
6 6 6 6 5 5 5 5 4 3 3 4 4 5 4 4 3 3 2 2 2 2 3 4 4 5 5 4 4 4 4 4 4 2 2 3 3 3 4 5 6 7 7
6 5 5 5 5 5 6 6 5 3 3 4 4 4 4 4 4 4 3 2 2 2 2 2 4 4 5 5 4 3 2 2 3 3 2 3 3 3 3 4 4 5 6
5 4 5 5 6 5 6 7 6 3 3 3 2 2 4 4 4 4 3 3 3 4 3 3 2 3 3 3 3 4 4 3 3 3 2 2 2 2 2 2 2 3 4
Wind_Direction
180 180 208 197 214 221 241 295 312 325 327 324 305 266 249 240 232 233 235 231 230 229 225 222 222 223 223 224 225 224 223 220 221 220 218 220 224 225 225 226 226 229 234
191 188 199 210 228 226 228 238 265 288 299 303 299 287 264 247 234 231 237 241 241 241 235 230 225 229 231 233 231 228 226 222 222 220 219 222 225 226 226 227 230 233 237
198 190 191 215 231 220 215 238 278 283 279 289 289 282 271 253 238 235 237 240 245 248 243 237 232 232 231 233 235 233 231 226 224 223 222 224 228 232 235 234 236 238 241
201 190 196 222 228 219 206 199 228 303 291 290 292 288 275 259 246 238 237 238 241 248 249 244 240 238 236 236 239 238 234 229 225 226 226 228 231 233 234 234 237 240 243
205 196 204 220 210 198 200 229 205 199 254 286 285 288 285 261 250 242 234 234 235 240 246 252 249 243 241 241 240 239 237 232 229 229 230 231 232 234 236 236 239 241 244
208 198 205 215 199 190 214 211 215 218 227 247 284 310 303 286 267 251 249 246 241 240 242 246 248 249 244 244 246 244 244 240 234 230 230 232 235 238 240 239 241 240 243
210 200 207 204 197 204 218 212 198 214 236 182 44 350 334 308 286 269 259 257 258 252 248 245 244 245 249 246 246 246 247 245 236 231 233 233 234 237 239 240 242 242 244
213 210 202 205 202 204 211 204 186 185 241 140 126 50 344 338 336 316 282 253 260 253 253 255 249 245 244 241 243 243 246 244 242 239 238 239 238 238 242 243 245 246 245
215 212 206 204 202 197 210 213 192 188 210 220 170 153 160 270 308 319 320 309 295 266 262 259 253 250 242 237 242 243 240 241 242 244 246 245 245 244 243 244 246 247 247
218 213 208 204 203 201 210 218 197 191 183 218 220 201 201 192 225 312 320 319 313 290 283 277 273 264 248 240 243 245 244 243 244 248 250 249 249 249 247 245 248 251 250
224 217 209 202 205 207 213 216 203 199 194 200 205 197 196 204 206 224 287 311 320 299 287 279 276 273 259 243 245 250 249 248 247 247 251 254 255 254 251 247 247 249 250
234 227 215 209 209 208 213 214 211 210 210 209 209 201 191 194 205 206 244 279 297 299 297 285 274 273 268 256 251 253 252 252 251 252 252 255 257 261 257 253 249 249 250
231 232 221 214 214 214 214 207 204 216 214 214 216 217 215 217 198 192 214 258 280 292 299 290 270 277 281 268 259 255 254 254 254 253 251 253 257 261 259 258 258 255 255
229 226 216 216 216 213 213 200 208 215 210 218 225 217 220 228 213 204 201 213 276 291 281 278 289 271 282 277 265 253 254 252 251 250 250 251 253 256 261 262 255 253 256
228 219 214 215 213 208 205 198 213 220 213 218 226 222 226 235 225 223 215 206 213 276 289 270 271 280 281 281 274 259 251 257 255 249 245 249 252 255 257 257 253 250 251
223 214 216 218 217 213 208 202 215 220 215 226 222 223 234 242 236 228 220 218 211 222 262 266 261 280 284 284 280 263 260 262 256 248 244 249 254 255 257 257 253 249 247
211 212 214 215 217 220 214 209 219 216 219 232 231 222 233 232 235 235 227 225 220 213 249 273 265 277 277 283 293 279 267 263 266 258 253 252 254 256 256 253 251 250 250
210 210 210 214 222 224 216 216 223 221 220 228 232 227 239 233 233 236 229 235 233 222 229 264 277 278 272 280 281 280 283 281 278 275 262 254 253 254 256 251 252 255 255
209 209 209 217 227 227 220 221 223 223 223 228 227 226 232 225 238 239 232 240 245 241 229 245 273 279 277 285 290 289 293 291 292 285 271 263 260 258 256 251 252 253 252
211 213 215 221 225 228 225 224 222 222 226 230 231 228 229 225 232 235 238 238 236 234 233 244 262 272 273 283 279 284 294 291 290 296 286 281 275 264 258 254 250 251 254
215 208 208 220 224 225 231 224 222 224 225 233 239 235 233 231 229 226 233 232 224 227 232 242 258 266 267 275 271 272 278 294 284 270 279 285 282 279 275 259 249 252 256
211 203 207 215 222 233 235 224 216 221 222 227 236 238 237 235 232 230 228 226 219 221 228 235 249 252 257 255 261 264 268 283 286 272 266 283 269 273 273 264 261 251 254
210 211 215 214 222 234 230 224 216 212 217 223 225 229 239 239 229 235 237 238 245 239 224 223 239 246 251 247 247 259 254 255 260 277 262 275 269 272 277 272 266 258 255
209 217 219 217 219 228 216 212 207 204 216 225 225 223 225 238 228 209 218 240 261 263 244 233 234 247 254 250 236 239 246 255 265 261 236 260 274 276 286 281 271 259 260
213 214 214 211 213 223 207 200 191 197 216 231 233 224 217 224 220 192 189 223 268 285 284 262 249 258 264 260 233 222 230 244 264 261 227 247 267 280 280 278 283 271 265
208 207 219 215 210 218 211 204 193 194 210 224 231 231 221 207 189 177 188 204 240 266 284 302 297 297 291 279 233 225 227 238 255 258 227 226 251 273 283 275 289 295 284
Height
1565 1566 1567 1567 1568 1569 1570 1570 1571 1571 1572 1572 1572 1573 1573 1573 1573 1573 1573 1574 1574 1574 1574 1575 1575 1575 1576 1576 1577 1577 1578 1578 1578 1579 1579 1580 1580 1580 1581 1582 1583 1583 1583
1566 1567 1567 1568 1569 1569 1570 1570 1571 1571 1571 1572 1572 1572 1572 1572 1572 1572 1573 1573 1573 1573 1573 1574 1574 1574 1574 1575 1575 1575 1576 1576 1577 1577 1577 1578 1578 1579 1579 1580 1580 1581 1581
1566 1567 1568 1568 1569 1569 1570 1570 1570 1571 1571 1571 1571 1571 1571 1571 1571 1571 1571 1571 1572 1572 1572 1572 1573 1573 1573 1573 1573 1574 1574 1574 1574 1575 1575 1576 1576 1576 1577 1577 1578 1578 1578
1566 1567 1568 1568 1569 1569 1569 1570 1570 1570 1570 1570 1570 1570 1570 1570 1570 1570 1570 1570 1570 1570 1571 1571 1571 1571 1571 1571 1571 1572 1572 1572 1572 1573 1573 1573 1574 1574 1574 1575 1575 1575 1576
1566 1567 1567 1568 1568 1568 1569 1569 1569 1569 1569 1569 1569 1569 1569 1569 1568 1568 1568 1568 1569 1569 1569 1569 1569 1569 1569 1569 1569 1569 1569 1570 1570 1570 1570 1571 1571 1571 1572 1572 1572 1572 1573
1565 1566 1567 1567 1567 1568 1568 1568 1568 1568 1567 1567 1567 1567 1567 1567 1567 1567 1567 1567 1567 1567 1567 1567 1567 1567 1567 1567 1567 1567 1567 1567 1567 1567 1567 1567 1568 1568 1569 1569 1569 1569 1570
1564 1565 1565 1566 1566 1567 1567 1567 1566 1566 1567 1566 1566 1566 1566 1566 1566 1565 1565 1565 1565 1565 1565 1565 1565 1565 1565 1564 1564 1564 1564 1564 1565 1565 1565 1565 1565 1566 1566 1566 1566 1566 1566
1563 1563 1564 1565 1565 1565 1565 1565 1565 1565 1565 1565 1565 1565 1565 1565 1564 1564 1564 1564 1564 1564 1564 1564 1563 1563 1562 1562 1562 1562 1562 1562 1562 1562 1562 1563 1563 1563 1563 1563 1563 1563 1563
1561 1562 1562 1563 1563 1564 1564 1564 1564 1564 1564 1564 1564 1565 1565 1563 1563 1563 1562 1562 1562 1562 1562 1562 1562 1561 1560 1560 1560 1559 1559 1559 1559 1559 1559 1559 1559 1560 1560 1560 1560 1560 1560
1559 1560 1560 1561 1561 1562 1562 1562 1562 1562 1562 1562 1563 1563 1564 1563 1563 1562 1561 1561 1561 1561 1561 1560 1560 1559 1559 1558 1557 1557 1557 1557 1557 1557 1556 1556 1556 1556 1557 1557 1557 1557 1556
1557 1558 1558 1559 1559 1559 1560 1560 1560 1560 1561 1561 1561 1561 1561 1562 1561 1561 1560 1559 1559 1559 1559 1558 1558 1557 1557 1556 1556 1555 1555 1554 1554 1554 1553 1553 1553 1553 1553 1553 1553 1553 1553
1554 1555 1556 1556 1557 1557 1557 1558 1558 1558 1558 1559 1559 1559 1559 1559 1559 1559 1558 1557 1556 1556 1556 1556 1555 1555 1555 1554 1554 1553 1552 1552 1551 1551 1550 1550 1550 1550 1550 1550 1550 1550 1550
1551 1552 1553 1554 1554 1554 1555 1555 1556 1556 1556 1556 1557 1557 1557 1557 1557 1557 1556 1555 1554 1554 1553 1553 1553 1553 1552 1552 1551 1551 1550 1549 1549 1548 1548 1547 1547 1546 1546 1546 1546 1546 1546
1548 1549 1550 1551 1551 1552 1552 1553 1553 1553 1554 1554 1554 1554 1554 1555 1555 1554 1554 1553 1552 1551 1551 1550 1550 1550 1550 1549 1549 1548 1547 1547 1546 1546 1545 1544 1544 1544 1543 1543 1542 1542 1542
1545 1546 1547 1547 1548 1549 1549 1550 1550 1551 1551 1551 1551 1551 1551 1552 1552 1551 1551 1551 1551 1549 1547 1547 1547 1547 1547 1546 1546 1545 1544 1544 1543 1543 1542 1542 1541 1541 1540 1540 1539 1539 1539
1542 1543 1543 1544 1545 1545 1546 1546 1547 1547 1548 1547 1548 1548 1548 1548 1548 1548 1548 1548 1548 1547 1545 1544 1544 1544 1544 1543 1543 1542 1542 1541 1540 1540 1539 1539 1538 1537 1537 1536 1536 1536 1535
1538 1539 1540 1541 1541 1542 1543 1543 1543 1544 1544 1545 1544 1544 1544 1545 1545 1545 1545 1545 1544 1544 1542 1541 1541 1541 1540 1540 1539 1539 1538 1538 1537 1537 1536 1535 1535 1534 1533 1533 1532 1532 1532
1534 1535 1536 1537 1537 1538 1539 1539 1540 1540 1540 1541 1541 1541 1541 1541 1542 1541 1541 1541 1541 1540 1539 1538 1538 1537 1537 1536 1536 1535 1534 1534 1533 1533 1532 1532 1531 1531 1530 1529 1529 1529 1528
1529 1530 1531 1532 1533 1534 1535 1535 1535 1536 1536 1537 1537 1537 1537 1538 1538 1538 1538 1538 1537 1537 1536 1535 1534 1533 1533 1533 1532 1531 1530 1530 1529 1529 1528 1528 1527 1527 1526 1526 1525 1525 1524
1524 1526 1527 1528 1529 1530 1530 1531 1531 1531 1532 1532 1533 1533 1534 1534 1534 1534 1534 1534 1533 1533 1532 1531 1530 1530 1529 1529 1528 1527 1526 1526 1525 1525 1524 1524 1523 1523 1522 1522 1521 1521 1520
1520 1522 1523 1524 1525 1525 1526 1526 1527 1527 1527 1528 1528 1529 1530 1530 1530 1530 1530 1530 1529 1529 1528 1528 1527 1526 1526 1525 1525 1524 1523 1522 1521 1521 1520 1520 1519 1518 1518 1517 1517 1516 1516
1516 1517 1518 1519 1520 1520 1521 1521 1522 1522 1523 1523 1524 1525 1525 1526 1526 1526 1526 1526 1526 1525 1525 1524 1523 1522 1522 1521 1521 1520 1519 1518 1517 1517 1516 1515 1515 1514 1514 1513 1513 1512 1512
1511 1512 1513 1514 1515 1515 1516 1517 1517 1518 1518 1519 1520 1520 1521 1521 1522 1522 1522 1522 1521 1521 1521 1521 1519 1518 1518 1517 1517 1516 1515 1514 1513 1513 1512 1511 1511 1509 1509 1508 1508 1508 1507
1506 1507 1508 1509 1509 1510 1511 1512 1513 1514 1514 1514 1515 1516 1517 1517 1517 1517 1517 1517 1517 1517 1516 1516 1515 1514 1514 1513 1513 1512 1511 1511 1510 1509 1509 1507 1506 1505 1505 1504 1504 1503 1503
1500 1501 1502 1504 1504 1505 1507 1508 1509 1509 1509 1510 1511 1511 1512 1512 1513 1513 1513 1513 1513 1512 1512 1511 1511 1510 1510 1509 1509 1508 1507 1506 1505 1504 1504 1503 1502 1501 1500 1500 1499 1499 1498
1494 1496 1497 1498 1500 1501 1502 1503 1504 1504 1505 1505 1506 1507 1507 1508 1508 1508 1508 1508 1508 1508 1508 1507 1506 1506 1506 1505 1504 1503 1502 1502 1500 1500 1499 1499 1498 1497 1495 1495 1495 1494 1494